SCP
-0 -0 -0 -0 -0 -0 -0 -0 0 0 0 0 -0 -0 -0 -0 -0 -0 -0 -0 -0 0 0 0 0 0 0 -0 -0 0 -0 -0 -0 -0 0 0 0 0 -0 -0 0 0 0 -0 0 0 0
-0 -0 -0 -0 -0 0 -0 -0 -0 0 0 0 0 0 -0 -0 -0 -0 -0 -0 -0 -0 0 -0 -0 0 0 0 0 0 -0 0 -0 0 0 0 0 0 0 -0 0 -0 0 0 0 0 0
-0 0 0 0 0 0 0 0 -0 0 0 0 0 -0 0 -0 -0 -0 -0 -0 -0 -0 -0 -0 -0 0 0 0 0 0 0 0 -0 0 0 0 0 0 0 0 0 0 0 0 0 0 0
0 0 0 0 0 0 0 0 0 0 0 0 0 -0 -0 -0 -0 -0 -0 -0 -0 -0 0 0 0 0 0 0 0 0 0 0 0 0 0 0 0 0 0 0 0 0 0 0 0 0 0
0 0 0 0 0 0 0 0 0 0 0 0 0 0 0 0 -0 -0 -0 -0 -0 0 0 0 0 0 0 0 0 0 0 0 0 0 0 0 0 0 0 0 0 0 0 0 0 0 0
0 0 0 0 0 0 0 0 0 0 0 0 0 0 0 0 -0 -0 0 0 0 0 0 0 0 0 0 0 0 0 0 0 0 0 0 0 0 0 0 0 -0 0 -0 0 -0 -0 0
0 0 0 0 0 0 0 0 0 0 0 0 0 0 0 0 0 0 0 0 0 0 0 0 0 0 -0 -0 0 0 0 0 0 0 -0 0 0 -0 -0 0 0 0 -0 0 0 0 0
0 0 0 0 0 0 0 0 0 0 0 0 0 0 0 0 0 0 0 0 0 0 -0 0 0 0 0 0 -0 0 0 0 0 0 0 0 -0 -0 0 0 0 0 0 0 0 0 0
0 0 0 0 0 0 0 0 0 0 0 0 0 0 0 0 0 0 0 0 0 0 0 0 0 0 0 0 0 0 0 0 0 0 0 0 0 0 0 0 0 0 0 -0 0 0 0
0 0 0 0 0 0 0 0 0 0 0 0 0 0 0 0 0 0 0 0 0 0 0 0 0 -0 0 0 0 0 0 0 0 0 0 0 0 0 0 0 0 0 0 0 0 0 0
0 0 0 0 0 0 0 0 0 0 0 0 0 0 0 -0 0 0 0 0 0 0 0 0 0 0 0 0 0 0 0 0 0 0 0 0 0 0 0 0 0 0 0 0 0 0 0
0 0 0 0 0 0 0 0 0 0 0 0 0 0 0 -0 0 0 0 0 0 0 0 0 0 0 0 0 0 0 0 0 0 0 0 0 0 0 0 0 0 0 0 0 0 0 0
0 0 0 0 0 0 0 0 0 0 0 0 0 0 0 0 0 0 0 0 0 0 0 0 0 0 0 0 0 0 0 0 0 0 0 0 0 0 0 0 0 0 0 0 0 0 0
0 0 0 0 0 0 0 0 0 0 0 0 0 0 0 0 0 0 0 0 0 0 0 0 0 0 0 0 0 0 0 0 0 0 0 0 0 0 0 0 0 0 0 0 0 0 0
0 0 0 0 0 0 0 0 0 0 0 0 0 -0 0 0 0 0 0 0 0 0 0 0 0 0 0 0 0 0 0 0 0 0 0 0 0 0 0 0 0 0 0 0 0 0 0
0 0 0 0 0 0 0 0 0 0 0 0 0 0 0 0 0 0 0 0 0 0 0 0 0 0 0 0 0 0 0 0 0 0 0 0 0 0 0 0 0 0 0 0 0 0 0
0 0 0 0 0 0 0 0 0 0 0 0 0 0 0 0 0 0 0 0 0 0 0 0 0 0 0 0 0 0 0 0 0 0 0 0 0 0 0 0 0 0 0 0 0 0 0
0 0 0 0 0 0 0 0 0 0 0 -0 0 0 0 0 0 0 0 0 0 0 0 0 0 0 0 0 0 0 0 0 0 0 0 0 0 0 0 0 0 0 0 0 0 0 0
0 0 0 0 0 0 0 0 0 0 0 -0 0 0 0 0 0 0 0 0 0 0 0 0 0 0 0 0 0 0 0 0 0 0 0 0 0 0 0 0 0 0 0 0 0 0 0
0 0 0 0 0 0 0 0 0 0 0 0 0 0 0 0 0 0 0 0 0 0 0 0 0 0 0 0 0 0 0 0 0 0 0 0 0 0 0 0 0 0 0 0 0 0 0
0 0 0 0 0 0 0 0 0 0 0 0 0 0 0 0 0 0 0 0 0 0 0 0 0 0 0 0 0 0 0 0 0 0 0 0 0 0 0 0 0 0 0 0 0 0 0
0 0 0 0 0 0 0 0 0 0 0 0 0 0 0 0 0 0 0 0 0 0 0 0 0 0 0 0 0 0 0 0 0 0 0 0 0 0 0 0 0 0 0 0 0 0 0
0 0 0 0 0 0 0 0 0 0 0 0 0 0 0 0 0 0 0 0 0 0 0 0 0 0 0 0 0 0 0 0 0 0 0 0 0 0 0 0 0 0 0 0 0 0 0
0 0 0 0 0 0 0 0 0 0 0 0 0 0 0 0 0 0 0 0 0 0 0 0 0 0 0 0 0 0 0 0 0 -0 -0 0 0 0 0 0 0 0 0 0 0 0 0
0 0 0 0 0 0 0 0 0 0 0 0 0 0 0 0 0 0 0 0 0 0 0 0 0 0 -0 0 0 0 0 0 0 0 0 0 0 0 0 0 0 0 0 0 0 0 0
0 -0 -0 -0 0 0 0 0 0 0 0 0 0 0 0 0 0 0 0 0 0 0 0 0 0 0 0 0 0 0 0 0 0 0 0 0 -0 0 0 0 0 0 0 0 0 0 0
0 0 0 -0 0 0 -0 0 0 0 0 0 0 0 0 0 0 0 0 0 0 0 0 0 0 0 0 0 0 0 0 0 0 0 0 0 0 0 0 0 0 0 0 0 0 0 0
0 0 0 -0 0 0 0 0 0 0 -0 0 0 0 0 0 0 0 0 0 0 0 0 0 0 0 0 0 0 0 0 0 0 0 0 0 0 0 0 0 0 0 0 0 0 0 0
0 0 0 0 0 0 0 0 0 0 0 0 0 0 0 0 0 -0 0 0 0 0 0 0 0 0 0 0 0 0 0 0 0 0 0 0 0 -0 0 0 0 0 0 0 0 0 0
Wind_Speed_500mb
32 32 35 37 38 37 37 38 41 43 43 43 39 42 44 43 40 42 43 43 43 44 47 48 43 42 40 23 53 42 29 25 27 35 58 49 36 19 12 11 11 9 5 29 29 36 50
41 43 42 40 39 40 40 39 39 41 45 46 46 42 44 48 46 43 43 42 44 44 45 50 48 46 33 15 30 18 22 15 19 42 57 44 27 24 15 8 10 8 6 27 35 36 27
41 41 43 44 46 47 46 44 41 42 41 43 47 51 49 47 49 50 47 43 45 44 46 48 50 45 38 70 44 48 38 10 10 42 57 48 20 20 12 4 8 20 14 18 12 15 9
46 44 41 41 43 45 47 51 52 47 46 43 43 47 52 53 53 50 48 47 46 45 44 46 45 38 28 37 33 32 22 13 11 25 30 33 26 7 9 2 8 8 10 11 8 15 26
45 47 49 47 45 44 45 46 49 52 52 51 48 46 48 49 54 57 48 47 46 45 35 30 23 17 24 18 13 7 13 17 18 22 27 24 21 9 6 12 9 6 13 7 6 14 14
50 50 48 49 50 50 50 49 48 50 51 52 54 54 50 47 49 54 50 45 37 27 18 14 19 11 24 12 6 25 8 20 11 31 30 15 12 7 6 8 12 13 12 5 12 17 17
52 54 54 54 55 54 52 51 51 49 51 52 51 55 55 47 49 49 47 29 14 7 10 17 19 31 44 28 44 8 4 9 22 19 13 16 8 14 21 20 12 13 15 24 7 4 4
55 55 53 53 53 54 56 57 54 51 51 51 51 55 58 45 46 44 25 14 6 12 30 45 58 67 72 66 32 57 28 13 11 11 6 8 16 19 15 12 15 17 15 14 2 7 8
58 57 56 54 54 53 53 54 54 56 54 53 51 53 57 51 44 24 30 9 3 25 10 36 32 31 33 47 47 69 25 23 8 11 9 12 9 21 15 9 14 10 18 13 28 13 6
55 55 56 56 53 52 51 51 53 55 56 56 52 51 56 54 28 26 15 14 23 25 7 15 10 5 8 19 15 68 37 27 8 21 16 11 10 17 18 19 15 13 17 16 19 25 14
55 54 53 54 55 56 54 54 54 55 55 56 54 47 53 52 49 30 17 28 25 4 9 9 6 5 11 21 7 27 44 33 19 14 12 14 10 16 10 15 19 19 16 21 15 15 11
55 55 55 55 53 56 57 57 58 60 60 57 59 49 58 51 49 22 8 8 1 9 14 12 4 1 7 9 10 10 22 26 26 13 5 18 7 15 24 11 19 17 14 15 10 8 3
55 55 56 55 56 55 55 57 58 62 62 59 61 54 50 57 45 37 25 15 5 9 7 8 3 5 7 11 10 5 14 14 13 11 13 5 14 7 7 12 3 12 13 2 4 3 11
52 54 54 51 52 54 54 55 57 61 66 63 63 58 51 47 36 35 15 7 11 11 18 9 8 5 2 5 8 12 11 11 2 13 8 15 10 16 8 15 16 14 18 12 13 10 9
53 52 51 52 55 51 54 58 58 62 68 67 64 60 42 30 23 24 27 7 15 14 9 4 10 4 6 8 8 7 8 15 19 17 20 14 15 9 10 10 19 9 8 13 15 4 5
57 57 51 49 51 51 56 58 58 61 68 67 67 62 17 17 13 36 7 13 13 12 3 1 6 5 1 6 11 10 5 7 10 22 11 17 3 14 12 8 7 18 17 7 5 10 9
52 51 51 49 49 50 51 55 55 58 67 65 54 26 20 10 21 22 9 15 15 27 12 12 8 7 4 3 8 6 12 7 11 9 18 15 9 11 12 21 25 5 6 10 11 9 13
56 54 50 48 47 48 47 51 53 50 63 54 27 8 13 31 1 3 6 12 9 11 21 10 7 12 13 13 10 13 17 18 18 14 13 21 18 19 24 8 14 20 21 17 13 11 4
57 56 51 51 50 44 42 43 48 48 45 56 37 17 10 14 4 5 11 9 6 4 9 7 10 14 11 14 8 15 16 21 46 15 12 13 9 14 12 11 2 10 11 11 10 8 16
55 45 49 56 44 39 39 38 40 46 36 37 13 8 6 17 5 3 9 10 8 12 11 10 10 9 7 10 12 13 8 10 14 14 43 35 8 21 33 25 12 11 15 13 15 10 12
51 46 50 55 33 31 34 34 38 42 34 22 8 5 4 7 4 7 5 8 6 8 7 8 8 14 18 15 12 15 18 33 11 11 7 16 19 13 38 24 16 16 17 21 17 14 16
52 51 46 45 35 35 36 34 35 35 36 11 8 8 14 14 23 8 5 5 5 7 6 12 13 19 11 18 21 19 18 14 12 3 7 5 14 18 37 33 30 25 24 18 16 8 9
54 51 49 41 35 38 37 31 31 29 30 11 8 11 9 13 8 5 6 3 13 21 21 35 16 11 22 25 23 40 29 18 10 14 4 3 7 8 28 17 13 13 38 22 13 12 19
49 52 55 50 43 38 37 33 30 28 23 21 13 12 8 10 8 7 16 20 28 20 17 32 32 9 14 56 57 29 26 24 12 6 11 7 1 5 13 11 9 25 14 31 31 13 14
44 46 45 45 49 41 44 34 25 28 26 24 17 8 9 10 18 22 17 11 29 33 18 26 35 37 49 27 5 4 3 5 8 16 14 6 7 7 10 13 8 3 8 12 15 14 3
50 49 48 45 44 40 41 36 31 32 27 28 23 25 21 12 12 24 6 19 13 8 11 13 36 37 14 2 4 13 12 11 8 6 7 3 3 5 3 13 15 9 8 7 2 3 4
53 49 50 44 37 38 36 29 29 27 26 30 29 21 14 18 36 40 14 9 13 7 7 11 23 17 25 5 6 6 8 6 13 28 18 9 8 5 9 5 7 4 17 5 12 11 13
46 45 40 38 34 33 33 34 31 26 20 30 30 22 29 21 56 64 59 41 33 21 6 18 20 5 6 5 3 3 5 3 6 4 25 13 3 4 7 6 1 30 10 10 4 21 46
43 36 35 34 36 34 31 31 27 24 24 29 31 20 27 29 38 41 64 58 56 48 34 18 11 13 4 2 4 5 2 3 3 6 8 12 13 7 2 5 10 28 8 18 21 49 68
Wind_Direction_500mb
350 349 345 342 340 339 337 335 332 330 328 327 326 324 322 319 315 313 312 313 313 312 310 311 312 309 308 292 277 297 290 274 259 212 195 189 179 166 178 191 182 241 215 194 183 178 170
351 348 347 344 342 338 336 334 331 329 327 327 325 323 320 318 316 313 311 312 311 309 305 305 307 303 292 255 299 289 309 276 255 199 186 181 192 176 172 193 152 255 138 139 140 136 140
348 347 345 342 341 339 337 334 332 330 325 323 322 322 320 318 318 316 313 314 309 307 303 302 303 298 275 268 290 276 283 269 217 198 185 181 166 170 153 186 236 150 99 69 102 119 111
345 344 342 340 337 335 334 332 330 331 328 323 321 319 318 320 319 316 315 316 308 307 303 302 299 289 264 288 277 268 272 204 164 193 191 194 202 221 209 56 70 80 65 111 221 147 161
345 341 340 339 337 334 332 330 327 326 328 328 323 320 317 319 319 317 320 315 312 308 304 303 293 274 268 267 286 35 242 198 191 174 185 192 179 203 166 102 52 10 151 126 160 203 146
346 343 341 338 337 336 334 331 330 327 324 325 323 320 317 322 319 318 323 321 313 297 292 283 269 296 252 235 287 321 342 222 182 178 171 188 167 106 46 96 189 181 134 148 194 192 164
346 343 340 338 337 336 333 331 332 332 328 324 321 318 314 324 320 324 327 338 320 298 289 249 265 258 268 267 296 278 17 199 187 166 158 183 127 178 187 188 183 145 168 177 111 35 70
342 342 341 339 338 336 335 334 335 335 330 324 322 319 315 322 317 326 338 356 342 337 300 289 277 264 261 258 280 267 271 192 165 190 136 91 201 201 173 160 165 162 149 206 23 135 141
339 337 338 340 338 337 337 335 335 334 332 328 327 324 318 321 318 326 346 26 321 321 267 297 271 259 265 236 229 251 228 183 148 180 190 155 225 146 142 172 141 170 165 169 211 142 84
335 333 332 332 333 334 333 333 332 331 329 327 328 328 321 320 323 327 343 339 327 318 7 278 271 264 209 202 227 236 222 190 160 186 155 213 207 159 151 175 150 162 204 165 140 152 198
329 327 327 327 328 329 329 329 329 327 325 323 322 326 317 319 313 318 305 300 318 166 329 247 260 283 182 172 211 204 210 191 161 154 130 239 170 159 166 191 164 214 158 154 163 165 125
324 323 322 320 321 322 325 326 326 324 323 322 318 323 313 312 309 325 325 305 280 53 250 303 227 123 103 225 287 120 165 199 196 155 123 221 240 168 186 178 182 142 91 55 54 104 130
320 321 321 319 318 318 320 321 322 322 320 320 315 317 308 299 299 293 288 307 62 183 307 259 254 17 242 219 218 209 151 155 151 143 193 319 258 211 155 130 94 83 82 6 47 85 209
317 319 324 323 319 320 322 321 320 320 319 320 315 314 308 297 282 265 245 67 204 220 235 292 297 312 246 356 228 165 117 162 299 114 131 173 236 178 173 167 170 179 155 155 187 179 217
313 315 318 323 325 323 325 326 324 323 321 322 320 317 314 301 274 230 165 188 204 200 227 264 332 57 321 342 83 68 181 188 189 173 178 164 248 283 174 152 144 193 157 187 106 41 93
313 313 311 316 320 321 324 329 328 327 325 331 327 324 316 313 285 176 114 225 214 216 277 319 189 232 221 18 36 40 299 214 207 182 163 209 240 223 242 145 213 164 168 98 356 142 220
318 313 315 313 314 318 322 326 330 330 327 335 331 321 330 315 147 168 187 222 225 241 220 205 201 231 174 23 187 219 225 264 193 214 180 150 134 268 132 210 208 120 160 56 121 133 172
316 315 317 313 314 314 320 325 328 333 332 339 344 322 337 146 119 193 194 203 222 243 226 249 186 190 193 191 235 219 217 217 187 139 165 207 189 216 213 230 191 184 181 163 182 220 213
306 309 308 308 312 311 314 321 325 333 342 341 325 284 238 206 212 268 303 289 274 262 230 221 226 206 195 201 223 206 219 234 237 167 198 186 208 216 306 324 255 195 173 131 114 95 188
300 305 303 313 314 312 317 319 326 329 335 335 307 323 308 206 276 358 341 269 266 258 253 215 222 266 261 261 228 252 236 270 190 214 258 185 160 186 225 228 174 192 179 174 150 146 174
311 303 305 312 314 320 321 325 325 329 336 334 268 258 330 306 315 335 268 293 281 275 318 281 279 217 210 221 225 223 244 269 281 8 77 157 193 201 227 197 180 205 180 169 177 187 173
303 302 308 311 304 306 310 313 318 325 336 323 297 334 332 291 298 293 193 272 295 326 272 257 210 255 284 228 207 228 204 209 217 55 46 2 241 194 232 217 202 222 231 181 195 164 247
302 303 305 301 305 304 303 305 309 313 326 318 326 306 299 282 311 305 236 348 311 323 263 244 275 340 291 253 288 275 254 277 196 147 285 279 188 125 234 193 158 240 224 215 198 189 189
299 302 297 296 292 290 292 290 300 296 302 308 293 307 280 275 255 256 314 312 294 301 289 278 295 257 250 309 309 273 264 267 188 87 177 234 95 160 244 87 174 243 188 206 210 199 195
304 300 297 292 289 288 285 285 283 286 283 283 287 263 271 274 278 283 270 295 304 298 261 270 272 266 300 301 251 238 258 252 181 101 350 236 135 249 165 170 220 106 13 127 159 223 214
295 297 299 295 291 285 279 279 281 285 269 271 283 285 243 280 239 260 344 296 286 292 311 266 309 315 332 278 194 167 198 181 138 40 31 294 184 169 231 146 191 199 303 15 303 216 23
301 295 296 295 293 288 275 272 273 265 266 264 274 272 245 266 269 279 251 271 294 342 274 302 340 318 14 355 210 161 216 173 159 176 196 331 329 60 294 117 272 346 325 326 150 217 13
299 308 293 295 289 288 276 275 278 263 260 262 268 273 250 259 273 274 266 265 269 281 262 326 331 315 333 343 296 259 123 193 99 170 185 193 44 284 281 10 111 358 13 163 187 98 81
296 303 298 292 295 275 281 276 263 268 265 254 255 281 239 257 262 267 277 270 261 247 270 279 283 298 285 303 292 280 30 51 163 146 52 174 178 161 111 275 290 346 359 85 130 91 91
Wind_Speed_850mb
32 32 35 37 38 37 37 38 41 43 43 43 39 42 44 43 40 42 43 43 43 44 47 48 43 42 40 23 53 42 29 25 27 35 58 49 36 19 12 11 11 9 5 29 29 36 50
41 43 42 40 39 40 40 39 39 41 45 46 46 42 44 48 46 43 43 42 44 44 45 50 48 46 33 15 30 18 22 15 19 42 57 44 27 24 15 8 10 8 6 27 35 36 27
41 41 43 44 46 47 46 44 41 42 41 43 47 51 49 47 49 50 47 43 45 44 46 48 50 45 38 70 44 48 38 10 10 42 57 48 20 20 12 4 8 20 14 18 12 15 9
46 44 41 41 43 45 47 51 52 47 46 43 43 47 52 53 53 50 48 47 46 45 44 46 45 38 28 37 33 32 22 13 11 25 30 33 26 7 9 2 8 8 10 11 8 15 26
45 47 49 47 45 44 45 46 49 52 52 51 48 46 48 49 54 57 48 47 46 45 35 30 23 17 24 18 13 7 13 17 18 22 27 24 21 9 6 12 9 6 13 7 6 14 14
50 50 48 49 50 50 50 49 48 50 51 52 54 54 50 47 49 54 50 45 37 27 18 14 19 11 24 12 6 25 8 20 11 31 30 15 12 7 6 8 12 13 12 5 12 17 17
52 54 54 54 55 54 52 51 51 49 51 52 51 55 55 47 49 49 47 29 14 7 10 17 19 31 44 28 44 8 4 9 22 19 13 16 8 14 21 20 12 13 15 24 7 4 4
55 55 53 53 53 54 56 57 54 51 51 51 51 55 58 45 46 44 25 14 6 12 30 45 58 67 72 66 32 57 28 13 11 11 6 8 16 19 15 12 15 17 15 14 2 7 8
58 57 56 54 54 53 53 54 54 56 54 53 51 53 57 51 44 24 30 9 3 25 10 36 32 31 33 47 47 69 25 23 8 11 9 12 9 21 15 9 14 10 18 13 28 13 6
55 55 56 56 53 52 51 51 53 55 56 56 52 51 56 54 28 26 15 14 23 25 7 15 10 5 8 19 15 68 37 27 8 21 16 11 10 17 18 19 15 13 17 16 19 25 14
55 54 53 54 55 56 54 54 54 55 55 56 54 47 53 52 49 30 17 28 25 4 9 9 6 5 11 21 7 27 44 33 19 14 12 14 10 16 10 15 19 19 16 21 15 15 11
55 55 55 55 53 56 57 57 58 60 60 57 59 49 58 51 49 22 8 8 1 9 14 12 4 1 7 9 10 10 22 26 26 13 5 18 7 15 24 11 19 17 14 15 10 8 3
55 55 56 55 56 55 55 57 58 62 62 59 61 54 50 57 45 37 25 15 5 9 7 8 3 5 7 11 10 5 14 14 13 11 13 5 14 7 7 12 3 12 13 2 4 3 11
52 54 54 51 52 54 54 55 57 61 66 63 63 58 51 47 36 35 15 7 11 11 18 9 8 5 2 5 8 12 11 11 2 13 8 15 10 16 8 15 16 14 18 12 13 10 9
53 52 51 52 55 51 54 58 58 62 68 67 64 60 42 30 23 24 27 7 15 14 9 4 10 4 6 8 8 7 8 15 19 17 20 14 15 9 10 10 19 9 8 13 15 4 5
57 57 51 49 51 51 56 58 58 61 68 67 67 62 17 17 13 36 7 13 13 12 3 1 6 5 1 6 11 10 5 7 10 22 11 17 3 14 12 8 7 18 17 7 5 10 9
52 51 51 49 49 50 51 55 55 58 67 65 54 26 20 10 21 22 9 15 15 27 12 12 8 7 4 3 8 6 12 7 11 9 18 15 9 11 12 21 25 5 6 10 11 9 13
56 54 50 48 47 48 47 51 53 50 63 54 27 8 13 31 1 3 6 12 9 11 21 10 7 12 13 13 10 13 17 18 18 14 13 21 18 19 24 8 14 20 21 17 13 11 4
57 56 51 51 50 44 42 43 48 48 45 56 37 17 10 14 4 5 11 9 6 4 9 7 10 14 11 14 8 15 16 21 46 15 12 13 9 14 12 11 2 10 11 11 10 8 16
55 45 49 56 44 39 39 38 40 46 36 37 13 8 6 17 5 3 9 10 8 12 11 10 10 9 7 10 12 13 8 10 14 14 43 35 8 21 33 25 12 11 15 13 15 10 12
51 46 50 55 33 31 34 34 38 42 34 22 8 5 4 7 4 7 5 8 6 8 7 8 8 14 18 15 12 15 18 33 11 11 7 16 19 13 38 24 16 16 17 21 17 14 16
52 51 46 45 35 35 36 34 35 35 36 11 8 8 14 14 23 8 5 5 5 7 6 12 13 19 11 18 21 19 18 14 12 3 7 5 14 18 37 33 30 25 24 18 16 8 9
54 51 49 41 35 38 37 31 31 29 30 11 8 11 9 13 8 5 6 3 13 21 21 35 16 11 22 25 23 40 29 18 10 14 4 3 7 8 28 17 13 13 38 22 13 12 19
49 52 55 50 43 38 37 33 30 28 23 21 13 12 8 10 8 7 16 20 28 20 17 32 32 9 14 56 57 29 26 24 12 6 11 7 1 5 13 11 9 25 14 31 31 13 14
44 46 45 45 49 41 44 34 25 28 26 24 17 8 9 10 18 22 17 11 29 33 18 26 35 37 49 27 5 4 3 5 8 16 14 6 7 7 10 13 8 3 8 12 15 14 3
50 49 48 45 44 40 41 36 31 32 27 28 23 25 21 12 12 24 6 19 13 8 11 13 36 37 14 2 4 13 12 11 8 6 7 3 3 5 3 13 15 9 8 7 2 3 4
53 49 50 44 37 38 36 29 29 27 26 30 29 21 14 18 36 40 14 9 13 7 7 11 23 17 25 5 6 6 8 6 13 28 18 9 8 5 9 5 7 4 17 5 12 11 13
46 45 40 38 34 33 33 34 31 26 20 30 30 22 29 21 56 64 59 41 33 21 6 18 20 5 6 5 3 3 5 3 6 4 25 13 3 4 7 6 1 30 10 10 4 21 46
43 36 35 34 36 34 31 31 27 24 24 29 31 20 27 29 38 41 64 58 56 48 34 18 11 13 4 2 4 5 2 3 3 6 8 12 13 7 2 5 10 28 8 18 21 49 68
Wind_Direction_850mb
350 349 345 342 340 339 337 335 332 330 328 327 326 324 322 319 315 313 312 313 313 312 310 311 312 309 308 292 277 297 290 274 259 212 195 189 179 166 178 191 182 241 215 194 183 178 170
351 348 347 344 342 338 336 334 331 329 327 327 325 323 320 318 316 313 311 312 311 309 305 305 307 303 292 255 299 289 309 276 255 199 186 181 192 176 172 193 152 255 138 139 140 136 140
348 347 345 342 341 339 337 334 332 330 325 323 322 322 320 318 318 316 313 314 309 307 303 302 303 298 275 268 290 276 283 269 217 198 185 181 166 170 153 186 236 150 99 69 102 119 111
345 344 342 340 337 335 334 332 330 331 328 323 321 319 318 320 319 316 315 316 308 307 303 302 299 289 264 288 277 268 272 204 164 193 191 194 202 221 209 56 70 80 65 111 221 147 161
345 341 340 339 337 334 332 330 327 326 328 328 323 320 317 319 319 317 320 315 312 308 304 303 293 274 268 267 286 35 242 198 191 174 185 192 179 203 166 102 52 10 151 126 160 203 146
346 343 341 338 337 336 334 331 330 327 324 325 323 320 317 322 319 318 323 321 313 297 292 283 269 296 252 235 287 321 342 222 182 178 171 188 167 106 46 96 189 181 134 148 194 192 164
346 343 340 338 337 336 333 331 332 332 328 324 321 318 314 324 320 324 327 338 320 298 289 249 265 258 268 267 296 278 17 199 187 166 158 183 127 178 187 188 183 145 168 177 111 35 70
342 342 341 339 338 336 335 334 335 335 330 324 322 319 315 322 317 326 338 356 342 337 300 289 277 264 261 258 280 267 271 192 165 190 136 91 201 201 173 160 165 162 149 206 23 135 141
339 337 338 340 338 337 337 335 335 334 332 328 327 324 318 321 318 326 346 26 321 321 267 297 271 259 265 236 229 251 228 183 148 180 190 155 225 146 142 172 141 170 165 169 211 142 84
335 333 332 332 333 334 333 333 332 331 329 327 328 328 321 320 323 327 343 339 327 318 7 278 271 264 209 202 227 236 222 190 160 186 155 213 207 159 151 175 150 162 204 165 140 152 198
329 327 327 327 328 329 329 329 329 327 325 323 322 326 317 319 313 318 305 300 318 166 329 247 260 283 182 172 211 204 210 191 161 154 130 239 170 159 166 191 164 214 158 154 163 165 125
324 323 322 320 321 322 325 326 326 324 323 322 318 323 313 312 309 325 325 305 280 53 250 303 227 123 103 225 287 120 165 199 196 155 123 221 240 168 186 178 182 142 91 55 54 104 130
320 321 321 319 318 318 320 321 322 322 320 320 315 317 308 299 299 293 288 307 62 183 307 259 254 17 242 219 218 209 151 155 151 143 193 319 258 211 155 130 94 83 82 6 47 85 209
317 319 324 323 319 320 322 321 320 320 319 320 315 314 308 297 282 265 245 67 204 220 235 292 297 312 246 356 228 165 117 162 299 114 131 173 236 178 173 167 170 179 155 155 187 179 217
313 315 318 323 325 323 325 326 324 323 321 322 320 317 314 301 274 230 165 188 204 200 227 264 332 57 321 342 83 68 181 188 189 173 178 164 248 283 174 152 144 193 157 187 106 41 93
313 313 311 316 320 321 324 329 328 327 325 331 327 324 316 313 285 176 114 225 214 216 277 319 189 232 221 18 36 40 299 214 207 182 163 209 240 223 242 145 213 164 168 98 356 142 220
318 313 315 313 314 318 322 326 330 330 327 335 331 321 330 315 147 168 187 222 225 241 220 205 201 231 174 23 187 219 225 264 193 214 180 150 134 268 132 210 208 120 160 56 121 133 172
316 315 317 313 314 314 320 325 328 333 332 339 344 322 337 146 119 193 194 203 222 243 226 249 186 190 193 191 235 219 217 217 187 139 165 207 189 216 213 230 191 184 181 163 182 220 213
306 309 308 308 312 311 314 321 325 333 342 341 325 284 238 206 212 268 303 289 274 262 230 221 226 206 195 201 223 206 219 234 237 167 198 186 208 216 306 324 255 195 173 131 114 95 188
300 305 303 313 314 312 317 319 326 329 335 335 307 323 308 206 276 358 341 269 266 258 253 215 222 266 261 261 228 252 236 270 190 214 258 185 160 186 225 228 174 192 179 174 150 146 174
311 303 305 312 314 320 321 325 325 329 336 334 268 258 330 306 315 335 268 293 281 275 318 281 279 217 210 221 225 223 244 269 281 8 77 157 193 201 227 197 180 205 180 169 177 187 173
303 302 308 311 304 306 310 313 318 325 336 323 297 334 332 291 298 293 193 272 295 326 272 257 210 255 284 228 207 228 204 209 217 55 46 2 241 194 232 217 202 222 231 181 195 164 247
302 303 305 301 305 304 303 305 309 313 326 318 326 306 299 282 311 305 236 348 311 323 263 244 275 340 291 253 288 275 254 277 196 147 285 279 188 125 234 193 158 240 224 215 198 189 189
299 302 297 296 292 290 292 290 300 296 302 308 293 307 280 275 255 256 314 312 294 301 289 278 295 257 250 309 309 273 264 267 188 87 177 234 95 160 244 87 174 243 188 206 210 199 195
304 300 297 292 289 288 285 285 283 286 283 283 287 263 271 274 278 283 270 295 304 298 261 270 272 266 300 301 251 238 258 252 181 101 350 236 135 249 165 170 220 106 13 127 159 223 214
295 297 299 295 291 285 279 279 281 285 269 271 283 285 243 280 239 260 344 296 286 292 311 266 309 315 332 278 194 167 198 181 138 40 31 294 184 169 231 146 191 199 303 15 303 216 23
301 295 296 295 293 288 275 272 273 265 266 264 274 272 245 266 269 279 251 271 294 342 274 302 340 318 14 355 210 161 216 173 159 176 196 331 329 60 294 117 272 346 325 326 150 217 13
299 308 293 295 289 288 276 275 278 263 260 262 268 273 250 259 273 274 266 265 269 281 262 326 331 315 333 343 296 259 123 193 99 170 185 193 44 284 281 10 111 358 13 163 187 98 81
296 303 298 292 295 275 281 276 263 268 265 254 255 281 239 257 262 267 277 270 261 247 270 279 283 298 285 303 292 280 30 51 163 146 52 174 178 161 111 275 290 346 359 85 130 91 91